Regional Weather Roundup
Issued by NWS

Home | Current Version | Previous Version | Graphics & Text | Print | Product List | Glossary On
Versions: 1 2 3 4 5 6 7 8 9 10 11 12 13 14 15 16 17 18 19 20 21 22 23 24 25 26 27 28 29 30 31 32 33 34 35 36 37 38 39 40 41 42 43 44 45 46 47 48 49 50
404
ASUS43 KIND 170609
RWRIN

WEATHER ROUNDUP FOR INDIANA
NATIONAL WEATHER SERVICE INDIANAPOLIS IN
100 AM EST SUN DEC 17 2017

NOTE: "FAIR" INDICATES FEW OR NO CLOUDS BELOW 12,000 FEET WITH NO
SIGNIFICANT WEATHER AND/OR OBSTRUCTIONS TO VISIBILITY.

* - STATION DOES NOT REPORT WEATHER SUCH AS PRECIPITATION OR FOG.

+ - STATION NOT QUALITY CONTROLLED BY THE NATIONAL WEATHER SERVICE.
    USE DATA WITH CAUTION...ESPECIALLY DEWPOINT AND RELATIVE
    HUMIDITY OBSERVATIONS.

INZ001>003-010>013-019-020-170700-
NORTHWEST INDIANA

CITY           SKY/WX    TMP DP  RH WIND       PRES   REMARKS
GARY /AIRPORT/ CLOUDY    27  25  92 CALM      30.06F
KNOX *+        CLOUDY    34  28  80 CALM      30.07F
LA PORTE +     CLOUDY    23  21  93 E3        30.07F
6HR MIN TEMP:  22; 6HR MAX TEMP:  30;

MICHIGAN CITY+ CLOUDY    28  27  93 CALM      30.06F
MONTICELLO +   CLOUDY    35  27  74 S5        30.07F WCI  31
6HR MIN TEMP:  34; 6HR MAX TEMP:  42;

RENSSELAER +   CLOUDY    32  25  74 CALM      30.06F
VALPARAISO     CLOUDY    35  27  72 CALM      30.06F
6HR MIN TEMP:  30; 6HR MAX TEMP:  38;


$$

LMZ046-743>745-170700-
SOUTHERN LAKE MICHIGAN

STATION/POSITION TIME  TEMP    WIND        PRES    WAVE
                       AIR SEA DIR/SP/G            HT
                 (UTC) (F)     (DEG/KT/KT) (MB)    (FT)
BURNS HARBOR     0540   38     170/  4/  8 1018.3F
MICHIGAN CITY    0540   36     130/  6/  7   N/A

$$

INZ004-005-014>016-021>024-170700-
NORTH CENTRAL INDIANA

CITY           SKY/WX    TMP DP  RH WIND       PRES   REMARKS
GOSHEN         CLOUDY    31  26  82 SE6       30.08F WCI  25
6HR MIN TEMP:  27; 6HR MAX TEMP:  33;

LOGANSPORT +   CLOUDY    30  27  86 S5        30.09F WCI  25
PERU/GRISSOM   CLOUDY    32  27  82 S7        30.08F WCI  25
6HR MIN TEMP:  32; 6HR MAX TEMP:  37;

ROCHESTER +    CLOUDY    34  30  86 S3        30.09F
SOUTH BEND     CLOUDY    25  24  96 E3        30.07F
6HR MIN TEMP:  25; 6HR MAX TEMP:  36;

WARSAW +       CLOUDY    34  28  80 CALM      30.09S

$$

INZ006>009-017-018-025>027-170700-
NORTHEAST INDIANA

CITY           SKY/WX    TMP DP  RH WIND       PRES   REMARKS
AUBURN +       MOCLDY    30  27  86 E7        30.12S WCI  23
FORT WAYNE     CLOUDY    26  23  88 E5        30.10F WCI  20
6HR MIN TEMP:  26; 6HR MAX TEMP:  34;

HUNTINGTON +   CLOUDY    31  26  83 CALM      30.10F
6HR MIN TEMP:  27; 6HR MAX TEMP:  34;


$$

INZ028-029-035-036-043>045-051>053-170700-
WEST CENTRAL INDIANA

CITY           SKY/WX    TMP DP  RH WIND       PRES   REMARKS
CRAWFORDSVL +  PTCLDY    36  28  75 S8        30.09F WCI  29
6HR MIN TEMP:  35; 6HR MAX TEMP:  37;

GREENCASTLE +  PTCLDY    41  28  60 S6        30.11F
LAFAYETTE      CLOUDY    37  29  72 S3        30.08F
6HR MIN TEMP:  32; 6HR MAX TEMP:  43;

TERRE HAUTE    CLOUDY    38  28  67 S8        30.12F WCI  32
6HR MIN TEMP:  37; 6HR MAX TEMP:  46;


$$

INZ030>032-037>040-046>048-054>057-064-065-170700-
CENTRAL INDIANA

CITY           SKY/WX    TMP DP  RH WIND       PRES   REMARKS
FRANKFORT +    CLOUDY    37  29  75 SW7       30.10F WCI  31
6HR MIN TEMP:  31; 6HR MAX TEMP:  39;

INDIANAPOLIS   CLOUDY    37  28  70 SW9       30.12F WCI  30
6HR MIN TEMP:  37; 6HR MAX TEMP:  42;

-EAGLE CREEK   CLOUDY    40  27  59 S6        30.10F WCI  36
6HR MIN TEMP:  40; 6HR MAX TEMP:  45;

KOKOMO +       CLOUDY    34  27  75 S8        30.10F WCI  27
6HR MIN TEMP:  31; 6HR MAX TEMP:  38;

MARION +       CLOUDY    32  26  80 S8        30.11S WCI  24
MT COMFORT *+  CLOUDY    34  30  86 S7        30.12F WCI  28
SHELBYVILLE    CLOUDY    34  25  69 S7        30.13F WCI  28
6HR MIN TEMP:  34; 6HR MAX TEMP:  42;

ZIONSVILLE +   CLOUDY    38  28  68 SW9       30.11F WCI  31
6HR MIN TEMP:  37; 6HR MAX TEMP:  40;


$$

INZ033-034-041-042-049-050-058-059-170700-
EAST CENTRAL INDIANA

CITY           SKY/WX    TMP DP  RH WIND       PRES   REMARKS
MUNCIE         CLEAR     38  27  64 S7        30.11F WCI  33
6HR MIN TEMP:  37; 6HR MAX TEMP:  44;

RICHMOND +     CLEAR     32  27  80 SW7       30.14S WCI  26

$$

INZ060-061-067>069-081>083-085>088-170700-
SOUTHWEST INDIANA

CITY           SKY/WX    TMP DP  RH WIND       PRES   REMARKS
EVANSVILLE     CLOUDY    40  30  67 S5        30.18S WCI  37
6HR MIN TEMP:  39; 6HR MAX TEMP:  47;

HUNTINGBURG +  MOCLDY    40  30  67 S9        30.18R WCI  34
6HR MIN TEMP:  40; 6HR MAX TEMP:  44;

WASHINGTON +   PTCLDY    37  27  67 S7        30.15F WCI  32
6HR MIN TEMP:  34; 6HR MAX TEMP:  45;


$$

INZ062-063-066-070>080-084-089>092-170700-
SOUTH CENTRAL AND SOUTHEAST INDIANA

CITY           SKY/WX    TMP DP  RH WIND       PRES   REMARKS
BEDFORD +      CLOUDY    41  28  60 S6        30.15F
BLOOMINGTON    CLOUDY    43  28  55 SW12      30.13F
6HR MIN TEMP:  42; 6HR MAX TEMP:  46;

MADISON *+     CLOUDY    34  27  75 S3        30.19F
NORTH VERNON + PTCLDY    36  27  69 S6        30.16F WCI  31
SEYMOUR +      PTCLDY    37  27  65 S6        30.16F WCI  33

$$





USA.gov is the U.S. government's official web portal to all federal, state and local government web resources and services.